Location: Canazei
(46.4667°N, 11.7667°E)
Time: 03:46:58
(UTC+00:00)

ARGOS Delta rocket - Pass Details

Date: 21 April 2021
Orbit: 634 x 839 km, 96.5° (Epoch: 10 May)

Event Time Altitude Azimuth Distance (km) Brightness Sun altitude
Rises 01:27:02 0° 13° (NNE) 2,964 8.1 -24.2°
Reaches altitude 10° 01:29:17 10° 17° (NNE) 2,038 7.1 -24.0°
Maximum altitude 01:33:41 64° 100° (E) 707 3.8 -23.5°
Enters shadow 01:34:20 55° 144° (SE) 763 3.8 -23.5°
